Location: Berlin
(38.3226°N, 75.2177°W)
Time: 05:04:53
(UTC+00:00)

Daily predictions for brighter satellites

Satellite Brightness Start Highest point End
(mag) Time Altitude Azimuth Time Altitude Azimuth Time Altitude Azimuth
OAO 2 Rocket 3.5 00:02:54 10° WSW 00:07:42 51° S 00:07:50 51° SSE
SeaSat 1 3.0 00:11:23 43° NNE 00:11:23 43° NNE 00:15:08 10° NNW
Cosmos 2219 3.5 00:07:59 10° NNW 00:13:43 68° WSW 00:17:56 19° S
YAOGAN 1 3.5 00:10:20 10° S 00:14:28 46° W 00:18:39 10° NNW
Cosmos 883 Rocket 4.3 00:11:52 10° S 00:18:01 76° E 00:24:09 10° N
S3M 4.3 00:14:35 10° SSW 00:20:37 63° W 00:26:43 10° N
Cosmos 2082 4.0 00:18:04 10° NNW 00:22:40 51° NNE 00:22:40 51° NNE
CZ-2C R/B 4.1 00:18:15 10° S 00:23:53 51° W 00:29:27 10° NNW
Cosmos 1892 4.2 00:21:05 10° NNW 00:24:39 35° W 00:26:13 25° SW
Cosmos 1315 Rocket 4.1 00:21:50 10° SSW 00:24:27 35° SW 00:24:27 35° SW
Cosmos 968 Rocket 3.7 00:22:24 10° NNW 00:27:36 68° WSW 00:28:17 60° SSW
Cosmos 1346 Rocket 4.5 00:26:13 10° NNW 00:28:23 29° NW 00:28:23 29° NW
Cosmos 2369 3.8 00:25:24 10° SSW 00:31:06 74° WNW 00:32:24 54° N
Atlas Centaur 2 3.4 00:26:25 10° WSW 00:34:29 47° S 00:35:21 45° SSE
ARGOS 3.2 00:36:35 73° WSW 00:36:39 73° WSW 00:42:05 10° NNW
NOSS 3-3 (A) 4.4 00:34:18 10° SW 00:39:54 55° NW 00:41:50 40° N
NOSS 3-3 (C) 4.4 00:34:22 10° SW 00:40:02 56° NW 00:41:57 40° N
USA 215 4.2 00:42:31 34° NNE 00:42:31 34° NNE 00:47:31 10° NNW
Cosmos 2227 Rocket 3.2 00:44:40 10° NW 00:49:59 43° WSW 00:51:13 38° SW
ATLAS 2AS CENTAUR R/B 4.1 00:50:01 10° NNW 00:54:14 26° N 00:54:14 26° N
Cosmos 1697 Rocket 4.2 00:59:32 10° WSW 01:04:33 33° WNW 01:06:00 29° NNW
H-2A R/B 4.0 01:03:10 10° SSW 01:07:39 27° W 01:12:13 10° NW
H-2A R/B (2) 4.0 00:25:24 10° W 01:08:36 52° SSW 01:09:35 50° S
Cosmos 1980 Rocket 4.4 01:21:00 10° SW 01:22:19 17° SW 01:22:19 17° SW
Milstar 3 4.4 01:31:36 10° WSW 01:34:44 25° SW 01:34:44 25° SW
NOSS 3-2 (C) 3.9 08:44:10 48° NNE 08:44:10 48° NNE 08:48:46 10° NNE
DELTA 2 R/B (1) 4.1 08:44:03 54° ESE 08:44:03 54° ESE 08:48:20 10° ESE
ISS -0.4 08:46:05 12° ENE 08:46:05 12° ENE 08:46:24 10° ENE
Lacrosse 4 Rocket 3.5 08:57:05 19° NNE 08:57:05 19° NNE 08:58:19 10° NNE
ALOS 4.2 08:52:16 10° NE 08:56:16 27° E 09:00:14 10° SSE
CENTAUR R/B 2.7 08:57:17 55° NNW 08:57:17 55° NNW 09:03:09 10° NNE
Cosmos 1626 4.2 09:02:57 10° SSE 09:06:04 27° E 09:09:13 10° NNE
CZ-2C R/B 2.7 09:01:27 10° NNE 09:05:23 56° N 09:05:23 56° N
Cosmos 1833 Rocket 2.9 09:08:56 29° S 09:11:51 70° ESE 09:17:29 10° NNE
ADEOS 4.5 09:08:10 10° NNE 09:13:14 48° E 09:18:16 10° S
PAYLOAD A 4.3 09:08:36 10° N 09:12:41 54° NNW 09:12:41 54° NNW
Nadezhda 4 Rocket 4.3 09:08:01 10° S 09:14:00 62° E 09:20:03 10° NNE
Cosmos 2180 Rocket 4.4 09:09:45 10° N 09:16:03 87° E 09:22:13 10° S
Cosmos 1269 Rocket 4.2 09:17:08 55° NNW 09:17:08 55° NNW 09:21:38 10° N
Cosmos 1302 Rocket 4.3 09:13:14 13° NNW 09:17:59 67° ENE 09:23:13 10° SSE
Lacrosse 5 rocket 2.0 09:22:55 40° NNE 09:22:55 40° NNE 09:25:26 10° NE
H-2A R/B 3.9 09:19:19 10° S 09:20:50 21° S 09:20:50 21° S
Cosmos 2344 4.2 09:27:00 32° NW 09:27:59 33° NW 09:35:03 10° NNE
Meteor 1-31 Rocket 4.0 09:25:55 10° NNE 09:29:40 42° E 09:33:24 10° S
Cosmos 2082 Rocket 2.8 09:25:27 10° S 09:30:54 55° ESE 09:36:22 10° NNE
Meteor 1-16 Rocket 4.0 09:28:36 10° NNW 09:33:50 61° W 09:39:04 10° S
SJ-6F 4.2 09:32:51 10° N 09:36:58 77° WNW 09:39:21 24° SSW
CZ-4B R/B 2.0 09:34:53 10° SSE 09:38:17 58° ENE 09:41:41 10° N
Cosmos 1656 3.6 09:36:09 16° NNW 09:40:49 71° WSW 09:46:27 10° SSE
ATLAS 3B R/B 2.5 09:36:11 11° SSW 09:42:39 88° ESE 09:49:18 10° NNE
CZ-4B R/B 4.3 09:38:48 10° NNE 09:42:59 64° ESE 09:46:55 10° S
Meteor 2-5 Rocket 3.8 09:37:34 10° S 09:43:13 82° E 09:49:01 10° N
deb Chang Zheng 4 3.5 09:41:19 10° NNE 09:45:35 84° ESE 09:49:50 10° SSW
COSMOS 2406 3.5 09:48:10 32° WSW 09:50:10 43° WNW 09:55:34 10° N
Cosmos 2279 Rocket 4.4 09:45:42 10° NNW 09:51:17 36° W 09:56:51 10° SSW
Cosmos 1892 Rocket 4.3 09:48:56 10° S 09:53:09 55° E 09:57:25 10° NNE
Cosmos 2084 4.3 09:50:38 10° SSW 09:54:46 50° ESE 09:59:00 10° NE
Cosmos 1400 Rocket 4.2 09:53:15 10° N 09:56:59 40° ENE 10:00:39 10° SSE
ADEOS Rocket 3.3 09:53:39 10° SSW 09:58:37 35° W 10:03:38 10° NNW
Cosmos 1697 Rocket 2.7 09:53:49 10° NNW 09:59:31 88° ENE 10:05:10 10° SSE
ARGOS Delta rocket 4.2 09:57:36 10° NNE 10:03:03 85° E 10:08:33 10° S
ERS-2 2.4 09:59:53 10° S 10:03:20 42° W 10:05:48 17° NW
BREEZE-M DEB (TANK) 1.4 10:04:38 41° W 10:05:20 64° SW 10:07:28 10° SE
SKYMED 2 4.1 10:03:14 10° SSE 10:07:30 62° ENE 10:11:48 10° N
Cosmos 44 Rocket 3.6 10:04:23 17° NW 10:08:11 50° WSW 10:13:10 10° S
Cosmos 1908 4.1 10:08:35 27° W 10:08:39 27° W 10:11:58 10° SSW
SAR-Lupe-4 3.4 10:05:07 10° S 10:08:40 81° WSW 10:12:15 10° NNW
SL-19 R/B 3.4 10:06:51 10° N 10:09:37 57° WNW 10:12:28 10° SSW
Cosmos 2026 Rocket 4.1 10:05:03 10° S 10:11:24 83° E 10:17:48 10° N
SJ-12 3.9 10:07:44 10° NNE 10:11:53 88° W 10:15:57 10° SSW
FENGYUN 3A 3.8 10:07:28 10° N 10:12:42 50° WNW 10:17:55 10° SW
Abrixas rocket 4.2 10:11:30 12° NNW 10:12:59 16° NNE 10:14:55 10° ENE
Cosmos 1461 3.4 10:10:10 18° WSW 10:13:12 44° NW 10:17:41 10° NNE
NOSS 8 (A) 4.4 10:12:08 10° SSW 10:15:49 76° ESE 10:18:51 10° NE
Cosmos 2195 Rocket 4.4 10:09:46 10° S 10:15:59 78° W 10:22:12 10° N
SL-14 R/B 3.6 10:13:04 10° SSW 10:16:49 41° W 10:20:37 10° N
Cosmos 2251 Rocket 3.5 10:11:33 10° SSW 10:16:52 65° WNW 10:22:12 10° NNE
Cosmos 1689 Rocket 2.2 10:13:59 10° SSE 10:16:54 72° ENE 10:19:50 10° N
ISS -2.3 10:19:03 20° NW 10:20:06 23° NNW 10:22:51 10° NNE
Cosmos 1980 Rocket 2.5 10:15:51 10° NNW 10:21:27 70° ENE 10:27:01 10° SSE
USA 290 2.6 10:19:04 10° SW 10:22:07 41° WNW 10:25:12 10° N
Cosmos 614 Rocket 4.2 10:20:49 10° S 10:25:57 76° ESE 10:31:06 10° NNE
SAR-Lupe-1 4.2 10:22:50 10° S 10:26:18 50° W 10:29:48 10° NNW
Cosmos 1300 2.8 10:24:53 10° NNW 10:28:36 52° W 10:32:18 10° S
DELTA 2 R/B (1) 4.3 10:24:51 15° W 10:28:54 38° SSW 10:34:03 10° SE
PSLV R/B 3.9 10:27:05 10° S 10:31:16 80° WSW 10:35:30 10° NNW
Cosmos 2360 4.2 10:27:24 10° NNW 10:33:01 62° WSW 10:38:36 10° S
ALOS 3.2 10:29:39 10° NNW 10:33:34 27° WNW 10:37:29 10° SW
Cosmos 1726 Rocket 3.8 10:33:36 10° NNW 10:37:52 46° W 10:42:08 10° SSW
Cosmos 1484 Rocket 4.2 10:37:04 10° NNW 10:39:39 18° WNW 10:42:13 10° WSW
Cosmos 1626 3.7 10:39:02 10° WSW 10:41:20 16° WNW 10:43:37 10° NW
Cosmos 2278 3.7 10:42:39 10° NNW 10:48:16 67° WSW 10:53:50 10° S
Aureole 3 3.9 10:44:12 10° NNW 10:48:24 57° W 10:53:43 10° S
CENTAUR R/B 4.2 10:45:03 10° WNW 10:48:47 16° NNW 10:52:51 10° N
Cosmos 2098 Rocket 4.1 10:42:22 10° S 10:48:55 78° E 10:54:12 10° N
H-2A R/B 2.7 10:45:10 10° N 10:49:00 85° WNW 10:52:51 10° SSW
Cosmos 2228 4.1 10:46:12 10° NW 10:49:44 24° W 10:53:15 10° SW
CZ-4B R/B 3.5 10:46:05 10° N 10:49:48 36° WNW 10:53:40 10° SW
Cosmos 2322 Rocket 4.1 10:47:10 10° N 10:52:04 29° ENE 10:56:55 10° ESE
COSMO-SKYMED 1 3.2 10:51:36 10° SSW 10:55:35 36° W 10:59:36 10° NNW
Cosmos 1833 Rocket 4.1 10:52:40 10° W 10:56:19 17° NW 11:00:00 10° NNW
CZ-3 R/B 3.1 10:47:31 10° W 11:04:50 45° SSW 11:10:16 10° ESE
